Regional Weather Roundup
Issued by NWS

Home | Current Version | Previous Version | Graphics & Text | Print | Product List | Glossary Off
Versions: 1 2 3 4 5 6 7 8 9 10 11 12 13 14 15 16 17 18 19 20 21 22 23 24 25 26 27 28 29 30 31 32 33 34 35 36 37 38 39 40 41 42 43 44 45 46 47 48 49 50

000
ASUS43 KDMX 040607
RWRIA

WEATHER ROUNDUP FOR IOWA
NATIONAL WEATHER SERVICE DES MOINES IA
100 AM CDT MON MAY 04 2015

NOTE: "FAIR" INDICATES FEW OR NO CLOUDS BELOW 12,000 FEET WITH NO
SIGNIFICANT WEATHER AND/OR OBSTRUCTIONS TO VISIBILITY.

* - THESE STATIONS ARE NOT NWS STATIONS...THUS NOT UNDER NWS
QUALITY CONTROL.  THEY ALSO DO NOT REPORT WEATHER SUCH
AS PRECIPITATION OR FOG.

IAZ001>003-012>014-020>022-031>034-043>046-040700-
   NORTHWEST IOWA

CITY           SKY/WX    TMP DP  RH WIND       PRES   REMARKS
CARROLL *      MOCLDY    63  57  82 N21       29.90S
CHEROKEE *     CLOUDY    62  44  51 N10       29.96S
DENISON *      CLEAR     63  55  77 NE10G20   29.89S
LE MARS *      CLEAR     61  43  51 N10       29.99F
ORANGE CITY *  PTCLDY    59  37  44 NE8       30.00R
SHELDON *      PTCLDY    57  37  47 NE6       30.00R
SIOUX CITY     PTCLDY    63  43  48 N12       29.94R
6HR MIN TEMP:  63; 6HR MAX TEMP:  81; 6HR PCP: TRACE;

SPENCER        CLOUDY    58  47  66 NW10      29.98R
6HR MIN TEMP:  58; 6HR MAX TEMP:  72;

STORM LAKE *   CLEAR     59  48  67 N17       29.95S
$$

IAZ055>058-069>071-079>083-090>094-040700-
   SOUTHWEST IOWA

CITY           SKY/WX    TMP DP  RH WIND       PRES   REMARKS
ATLANTIC *     DRIZZLE   64  57  77 N9        29.90R
AUDUBON *      CLEAR     64  57  77 N10G16    29.90R
CLARINDA *     DRIZZLE   64  59  82 W13       29.93R
COUNCIL BLFS * PTCLDY    66  57  72 N10       29.92R
CRESTON *      CLEAR     68  55  64 SW13      29.88R
HARLAN  *      CLEAR     64  61  88 NE7       29.94R
LAMONI         CLOUDY    70  58  65 S24G31    29.85F
6HR MIN TEMP:  67; 6HR MAX TEMP:  80; 6HR PCP: TRACE;

RED OAK *      MOCLDY    68  57  68 NW13G22   29.90R
SHENANDOAH *   CLOUDY    66  59  77 S16       29.89F
$$

IAZ047>049-059>061-072>074-084-040700-
   CENTRAL IOWA

CITY           SKY/WX    TMP DP  RH WIND       PRES   REMARKS
AMES           CLOUDY    63  53  70 NE8       29.88R
6HR MIN TEMP:  63; 6HR MAX TEMP:  79;

ANKENY *       CLEAR     66  59  77 SE6       29.85F
CHARITON *     CLOUDY    70  59  68 SW15G22   29.88R
DES MOINES     CLOUDY    71  57  61 SE5       29.86S
6HR MIN TEMP:  69; 6HR MAX TEMP:  80;

GRINNELL*      CLOUDY    63  54  72 E12       29.91R
KNOXVILLE *    CLOUDY    68  59  73 NW6       29.87R
MARSHALLTOWN   CLOUDY    61  55  81 SE10      29.88R
6HR MIN TEMP:  60; 6HR MAX TEMP:  78;

PELLA *        CLOUDY    69  62  79 CALM      29.89R
PERRY *          N/A     65  55  72 N14       29.87R
$$

IAZ004>006-015-016-023>025-035-036-040700-
   NORTH CENTRAL IOWA

CITY           SKY/WX    TMP DP  RH WIND       PRES   REMARKS
ALGONA *       CLOUDY    59  52  77 N9        29.95S
CLARION *      PTCLDY    61  61 100 N13       29.90F
ESTHERVILLE    MOCLDY    55  43  63 N8        29.97R
6HR MIN TEMP:  55; 6HR MAX TEMP:  69;

FORT DODGE *   CLOUDY    61  55  82 N7        29.93R
MASON CITY     TSTM      59  57  93 N8        29.93S FOG
6HR MIN TEMP:  59; 6HR MAX TEMP:  78; 6HR PCP:  0.38;

FOREST CITY *  CLEAR     55  52  88 NW7       29.94S
IOWA FALLS *   LGT RAIN  66  54  63 CALM      29.87F
$$

IAZ007>011-017>019-026>030-037>042-050>054-066-040700-
   NORTHEAST IOWA

CITY           SKY/WX    TMP DP  RH WIND       PRES   REMARKS
CEDAR RAPIDS   RAIN      61  57  87 E9        29.93S
6HR MIN TEMP:  61; 6HR MAX TEMP:  77;

CHARLES CITY * LGT RAIN  59  59 100 E6        29.91R
CLINTON *      CLOUDY    61  55  82 N15G23    29.98S THUNDER
DECORAH *      CLOUDY    59  59 100 N3        29.91F
DUBUQUE        LGT RAIN  58  55  90 NE15      29.93F
6HR MIN TEMP:  58; 6HR MAX TEMP:  69; 6HR PCP:  0.31;

MONTICELLO *   LGT RAIN  59  59 100 E9        29.91F
OELWEIN *      CLOUDY    61  57  88 S12       29.91R
WATERLOO       LGT RAIN  60  58  92 S6        29.88F
6HR MIN TEMP:  60; 6HR MAX TEMP:  79; 6HR PCP:  0.37;

$$

IAZ064-065-067-068-078-040700-
   EAST CENTRAL IOWA

CITY           SKY/WX    TMP DP  RH WIND       PRES   REMARKS
DAVENPORT      TSTM      61  55  81 N17G28    29.97R
6HR MIN TEMP:  61; 6HR MAX TEMP:  80; 6HR PCP:  0.13;

IOWA CITY      LGT RAIN  61  58  90 E6        29.95F
6HR MIN TEMP:  61; 6HR MAX TEMP:  76; 6HR PCP:  0.14;

MT. PLEASANT * CLOUDY    67  55  65 S7        29.91S
MUSCATINE *    CLOUDY    66  55  68 NE17G28   29.95R
QUAD CITIES    CLOUDY    67  52  58 N18G26    29.96R THUNDER
6HR MIN TEMP:  69; 6HR MAX TEMP:  81;

$$

IAZ062-063-075>077-085>089-095>099-040700-
   SOUTHEAST IOWA

CITY           SKY/WX    TMP DP  RH WIND       PRES   REMARKS
BURLINGTON     CLOUDY    69  55  60 S9        29.91F
6HR MIN TEMP:  67; 6HR MAX TEMP:  80;

FAIRFIELD *    CLOUDY    68  57  68 S7        29.89S
FORT MADISON * PTCLDY    66  57  72 S6        29.92F
KEOKUK *       MOCLDY    70  57  64 S7G13     29.91F
OSKALOOSA *      N/A     69  57  66 CALM      29.89R
CENTERVILLE *  CLEAR     68  59  73 S13G21    29.90S
OTTUMWA        CLOUDY    71  57  61 S8        29.87
6HR MIN TEMP:  69; 6HR MAX TEMP:  80;

WASHINGTON *   CLOUDY    68  57  68 NE17      29.93R
$$

ABBREVIATIONS USED IN REMARKS
   TC - TEMPERATURES IN CELSIUS
  WCI - WIND CHILL INDEX
   HX - HEAT INDEX
  VSB - VISIBILITY
$$



USA.gov is the U.S. government's official web portal to all federal, state and local government web resources and services.